Back to catalog

STARLINK-30913

AliveCommunicationsVLEO
NORAD 58388·PAYLOAD·🇺🇸 United States

Launched Nov 20, 2023 from Vandenberg Space Force Base

Loading…

Next Passes (next 24 hours)

TLE

FreshSource: CelesTrak SupGP

Epoch: Sep 14, 2026, 14:31 UTC

1 58388C 23178Q   26257.60534722  .00019777  00000+0  58457-3 0  2573
2 58388  53.1577 199.5775 0001259  90.9577 199.8356 15.34367198    18

Track STARLINK-30913 in real time with AllMySat

Download on the App Store